Location: Unspecified
(0.0000°N, 0.0000°E)
Time: 11:27:25
(UTC+00:00)

Amsat-Oscar-6 - Pass Details

Date: 27 April 2019
Orbit: 1448 x 1455 km, 101.8° (Epoch: 22 May)

Event Time Altitude Azimuth Distance (km) Brightness Sun altitude
Rises 02:24:16 0° 34° (NNE) 4,535 ? -51.2°
Reaches altitude 10° 02:27:18 10° 42° (NE) 3,559 ? -50.5°
Enters shadow 02:32:35 33° 76° (ENE) 2,246 ? -49.3°
